Flag for U.S.A. Weather past 2 weeks in Burbank, California, U.S.A.

Now
46 °F

Sunny.


Feels Like: 46 °F
Forecast: 46 / 70 °F
Wind: No wind

Location: Burbank-Glendale-Pasadena Airport

Current Time: Mar 4, 2015 at 7:31:05 AM

Latest Report: Mar 4, 2015 at 6:53 AM


Visibility: 10 mi

Pressure: 30.00 "Hg

Humidity: 77%

Dew point: 39 °F

Location of BurbankLocation

Historic Weather in Burbank — Graph

°F

Burbank temperature yesterday

Maximum temperature yesterday: 64 °F (at 12:53 PM)
Minimum temperature yesterday: 43 °F (at 6:53 AM)
Average temperature yesterday: 54 °F

Past Weeks' High & Low Weather Summary

 TemperatureHumidityPressure
High75 °F (Feb 18, 1:53 PM)100% (Feb 18, 6:55 AM)30.21 "Hg (Feb 18, 6:55 AM)
Low43 °F (Feb 24, 3:53 AM)15% (Feb 24, 3:53 PM)29.71 "Hg (Feb 27, 11:53 PM)
Average57 °F67%29.94 "Hg
* Reported Feb 17 5:53 AM — Mar 4 5:53 AM, Burbank, Weather by CustomWeather, © 2015

Note: Actual official high and low records may vary slightly from our data, if they occured in-between our weather recording intervals... More about our weather records

Advertising

Burbank weather history for previous 24 hours

 ConditionsComfort  
Time TempWeatherWind HumidityBarometerVisibility
5:53 AM
Wed, Mar 4
45 °FClear.3 mph76%29.98 "Hg10 mi
4:53 AM46 °FClear.No wind68%29.95 "Hg10 mi
3:53 AM48 °FClear.No wind63%29.95 "Hg10 mi
2:53 AM46 °FClear.No wind73%29.94 "Hg10 mi
1:53 AM48 °FClear.No wind68%29.95 "Hg10 mi
12:53 AM48 °FClear.3 mph68%29.95 "Hg10 mi
11:53 PM
Tue, Mar 3
50 °FClear.No wind68%29.93 "Hg10 mi
10:53 PM53 °FClear.5 mph64%29.93 "Hg10 mi
9:53 PM54 °FClear.No wind55%29.91 "Hg10 mi
8:53 PM55 °FClear.8 mph57%29.90 "Hg10 mi
7:53 PM58 °FClear.7 mph46%29.89 "Hg10 mi
6:53 PM59 °FClear.No wind54%29.88 "Hg10 mi
5:53 PM59 °FClear.6 mph56%29.85 "Hg10 mi
4:53 PM60 °FPassing clouds.7 mph52%29.85 "Hg10 mi
3:53 PM62 °FPassing clouds.9 mph46%29.85 "Hg10 mi
2:53 PM64 °FPartly sunny.12 mph45%29.85 "Hg10 mi
1:53 PM64 °FSunny.7 mph37%29.85 "Hg10 mi
12:53 PM64 °FSunny.No wind35%29.88 "Hg10 mi
11:53 AM61 °FSunny.3 mph39%29.90 "Hg10 mi
10:53 AM58 °FSunny.No wind47%29.93 "Hg10 mi
9:53 AM55 °FSunny.No wind57%29.94 "Hg10 mi
8:53 AM52 °FSunny.No wind61%29.95 "Hg10 mi
7:53 AM49 °FSunny.No wind69%29.94 "Hg10 mi
Weather by CustomWeather, © 2015

See weather overviewHow to use our weather pages